Time,TemperatureF,DewpointF,PressureIn,WindDirection,WindDirectionDegrees,WindSpeedMPH,WindSpeedGustMPH,Humidity,HourlyPrecipIn,Conditions,Clouds,dailyrainin,SoftwareType,DateUTC
2013-06-04 00:01:00,62.2,57.7,29.95,NE,40,0.0,0.0,85,0.00,,,0.00,VWS V13.01,2013-06-04 05:01:00,
2013-06-04 00:06:00,62.2,57.7,29.95,NE,40,0.0,0.0,85,0.00,,,0.00,VWS V13.01,2013-06-04 05:06:00,
2013-06-04 00:11:00,62.4,57.8,29.95,NE,40,0.0,0.0,85,0.00,,,0.00,VWS V13.01,2013-06-04 05:11:00,
2013-06-04 00:16:00,62.4,57.5,29.95,NE,40,0.0,0.0,84,0.00,,,0.00,VWS V13.01,2013-06-04 05:16:00,
2013-06-04 00:22:00,62.4,57.5,29.95,NE,40,0.0,0.0,84,0.00,,,0.00,VWS V13.01,2013-06-04 05:22:00,
2013-06-04 00:27:00,62.4,57.5,29.95,NE,40,0.0,0.0,84,0.00,,,0.00,VWS V13.01,2013-06-04 05:27:00,
2013-06-04 00:32:00,62.4,57.5,29.95,NE,40,0.0,0.0,84,0.00,,,0.00,VWS V13.01,2013-06-04 05:32:00,
2013-06-04 00:37:00,62.4,57.5,29.95,NE,40,0.0,0.0,84,0.00,,,0.00,VWS V13.01,2013-06-04 05:37:00,
2013-06-04 00:42:00,62.4,57.5,29.95,NE,40,0.0,0.0,84,0.00,,,0.00,VWS V13.01,2013-06-04 05:42:00,
2013-06-04 00:47:00,62.4,57.8,29.95,NNE,33,0.0,0.0,85,0.00,,,0.00,VWS V13.01,2013-06-04 05:47:00,
2013-06-04 00:52:00,62.4,57.8,29.95,NNE,32,0.0,0.0,85,0.00,,,0.00,VWS V13.01,2013-06-04 05:52:00,
2013-06-04 00:57:00,62.4,57.5,29.95,NNE,32,0.0,0.0,84,0.00,,,0.00,VWS V13.01,2013-06-04 05:57:00,
2013-06-04 01:02:00,62.6,57.7,29.95,NNE,32,0.0,0.0,84,0.00,,,0.00,VWS V13.01,2013-06-04 06:02:00,
2013-06-04 01:07:00,62.4,57.5,29.95,NNE,32,0.0,0.0,84,0.00,,,0.00,VWS V13.01,2013-06-04 06:07:00,
2013-06-04 01:12:00,62.4,57.5,29.95,NNE,22,0.0,0.0,84,0.00,,,0.00,VWS V13.01,2013-06-04 06:12:00,
2013-06-04 01:17:00,62.4,57.5,29.95,NNE,20,0.0,0.0,84,0.00,,,0.00,VWS V13.01,2013-06-04 06:17:00,
2013-06-04 01:22:00,62.4,57.8,29.95,NE,36,2.2,2.2,85,0.00,,,0.00,VWS V13.01,2013-06-04 06:22:00,
2013-06-04 01:27:00,62.4,57.5,29.95,NNE,19,2.7,3.1,84,0.00,,,0.00,VWS V13.01,2013-06-04 06:27:00,
2013-06-04 01:32:00,62.4,57.5,29.95,NE,34,3.1,3.6,84,0.00,,,0.00,VWS V13.01,2013-06-04 06:32:00,
2013-06-04 01:37:00,62.4,57.5,29.95,NE,41,0.0,0.0,84,0.00,,,0.00,VWS V13.01,2013-06-04 06:37:00,
2013-06-04 01:42:00,62.4,57.5,29.95,NE,41,3.1,3.1,84,0.00,,,0.00,VWS V13.01,2013-06-04 06:42:00,
2013-06-04 01:47:00,62.2,57.3,29.95,NE,45,0.0,2.7,84,0.00,,,0.00,VWS V13.01,2013-06-04 06:47:00,
2013-06-04 01:52:00,62.2,57.3,29.95,NE,45,0.0,0.0,84,0.00,,,0.00,VWS V13.01,2013-06-04 06:52:00,
2013-06-04 01:57:00,62.2,57.3,29.95,NE,45,0.0,0.0,84,0.00,,,0.00,VWS V13.01,2013-06-04 06:57:00,
2013-06-04 02:02:00,62.2,57.3,29.95,NE,45,0.0,0.0,84,0.00,,,0.00,VWS V13.01,2013-06-04 07:02:00,
2013-06-04 02:07:00,62.0,57.2,29.95,NE,45,0.0,0.0,84,0.00,,,0.00,VWS V13.01,2013-06-04 07:07:00,
2013-06-04 02:12:00,62.0,57.2,29.95,NE,39,0.0,0.0,84,0.00,,,0.00,VWS V13.01,2013-06-04 07:12:00,
2013-06-04 02:17:00,62.2,57.3,29.95,NE,39,0.0,0.0,84,0.00,,,0.00,VWS V13.01,2013-06-04 07:17:00,
2013-06-04 02:22:00,62.2,57.0,29.95,NE,39,0.0,0.0,83,0.00,,,0.00,VWS V13.01,2013-06-04 07:22:00,
2013-06-04 02:27:00,62.2,57.0,29.95,NE,39,0.0,0.0,83,0.00,,,0.00,VWS V13.01,2013-06-04 07:27:00,
2013-06-04 02:32:00,62.0,56.8,29.95,NNE,28,0.0,0.0,83,0.00,,,0.00,VWS V13.01,2013-06-04 07:32:00,
2013-06-04 02:36:00,62.0,56.8,29.95,North,6,0.0,0.0,83,0.00,,,0.00,VWS V13.01,2013-06-04 07:36:00,
2013-06-04 02:42:00,61.9,56.7,29.95,North,6,0.0,0.0,83,0.00,,,0.00,VWS V13.01,2013-06-04 07:42:00,
2013-06-04 02:47:00,61.7,56.5,29.95,North,6,0.0,0.0,83,0.00,,,0.00,VWS V13.01,2013-06-04 07:47:00,
2013-06-04 02:52:00,61.5,56.3,29.95,North,6,0.0,0.0,83,0.00,,,0.00,VWS V13.01,2013-06-04 07:52:00,
2013-06-04 02:57:00,61.3,56.1,29.95,North,6,0.0,0.0,83,0.00,,,0.00,VWS V13.01,2013-06-04 07:57:00,
2013-06-04 03:02:00,61.1,56.6,29.92,North,6,0.0,0.0,85,0.00,,,0.00,VWS V13.01,2013-06-04 08:02:00,
2013-06-04 03:07:00,61.0,56.4,29.92,North,6,0.0,0.0,85,0.00,,,0.00,VWS V13.01,2013-06-04 08:07:00,
2013-06-04 03:12:00,61.0,56.8,29.92,North,6,0.0,0.0,86,0.00,,,0.00,VWS V13.01,2013-06-04 08:12:00,
2013-06-04 03:17:00,60.6,56.4,29.92,North,6,0.0,0.0,86,0.00,,,0.00,VWS V13.01,2013-06-04 08:17:00,
2013-06-04 03:22:00,60.4,56.5,29.92,North,6,0.0,0.0,87,0.00,,,0.00,VWS V13.01,2013-06-04 08:22:00,
2013-06-04 03:27:00,60.2,56.7,29.92,North,6,0.0,0.0,88,0.00,,,0.00,VWS V13.01,2013-06-04 08:27:00,
2013-06-04 03:32:00,60.2,56.7,29.92,North,6,0.0,0.0,88,0.00,,,0.00,VWS V13.01,2013-06-04 08:32:00,
2013-06-04 03:37:00,60.1,56.5,29.92,North,6,0.0,0.0,88,0.00,,,0.00,VWS V13.01,2013-06-04 08:37:00,
2013-06-04 03:42:00,59.9,56.6,29.92,North,6,0.0,0.0,89,0.00,,,0.00,VWS V13.01,2013-06-04 08:42:00,
2013-06-04 03:47:00,59.7,56.5,29.92,North,6,0.0,0.0,89,0.00,,,0.00,VWS V13.01,2013-06-04 08:47:00,
2013-06-04 03:52:00,59.7,56.8,29.92,North,6,0.0,0.0,90,0.00,,,0.00,VWS V13.01,2013-06-04 08:52:00,
2013-06-04 03:57:00,59.5,56.9,29.92,NE,45,0.0,0.0,91,0.00,,,0.00,VWS V13.01,2013-06-04 08:57:00,
2013-06-04 04:02:00,59.7,57.1,29.89,NE,50,0.0,0.0,91,0.00,,,0.00,VWS V13.01,2013-06-04 09:02:00,
2013-06-04 04:07:00,59.7,57.1,29.89,NE,50,0.0,0.0,91,0.00,,,0.00,VWS V13.01,2013-06-04 09:07:00,
2013-06-04 04:12:00,59.9,57.5,29.89,East,88,0.0,0.0,92,0.00,,,0.00,VWS V13.01,2013-06-04 09:12:00,
2013-06-04 04:17:00,59.9,57.2,29.89,NE,49,0.0,0.0,91,0.00,,,0.00,VWS V13.01,2013-06-04 09:17:00,
2013-06-04 04:22:00,60.1,57.1,29.89,NE,49,0.0,0.0,90,0.00,,,0.00,VWS V13.01,2013-06-04 09:22:00,
2013-06-04 04:27:00,60.2,57.0,29.89,North,3,2.7,2.7,89,0.00,,,0.00,VWS V13.01,2013-06-04 09:27:00,
2013-06-04 04:32:00,60.4,56.8,29.92,North,3,0.0,0.0,88,0.00,,,0.00,VWS V13.01,2013-06-04 09:32:00,
2013-06-04 04:37:00,60.6,56.4,29.92,NW,307,0.0,0.0,86,0.00,,,0.00,VWS V13.01,2013-06-04 09:37:00,
2013-06-04 04:42:00,60.6,56.4,29.92,NW,307,0.0,0.0,86,0.00,,,0.00,VWS V13.01,2013-06-04 09:42:00,
2013-06-04 04:47:00,60.6,56.1,29.92,NW,308,0.0,0.0,85,0.00,,,0.00,VWS V13.01,2013-06-04 09:47:00,
2013-06-04 04:52:00,60.6,56.1,29.92,NNW,330,0.0,0.0,85,0.00,,,0.00,VWS V13.01,2013-06-04 09:52:00,
2013-06-04 04:57:00,60.6,56.4,29.92,NNW,330,0.0,0.0,86,0.00,,,0.00,VWS V13.01,2013-06-04 09:57:00,
2013-06-04 05:02:00,60.4,56.2,29.92,NNW,330,0.0,0.0,86,0.00,,,0.00,VWS V13.01,2013-06-04 10:02:00,
2013-06-04 05:07:00,60.1,55.9,29.92,NNW,330,0.0,0.0,86,0.00,,,0.00,VWS V13.01,2013-06-04 10:07:00,
2013-06-04 05:12:00,59.9,55.7,29.92,NNW,330,0.0,0.0,86,0.00,,,0.00,VWS V13.01,2013-06-04 10:12:00,
2013-06-04 05:17:00,59.7,56.2,29.95,NNW,330,0.0,0.0,88,0.00,,,0.00,VWS V13.01,2013-06-04 10:17:00,
2013-06-04 05:22:00,59.3,56.1,29.95,NNW,330,0.0,0.0,89,0.00,,,0.00,VWS V13.01,2013-06-04 10:22:00,
2013-06-04 05:27:00,59.3,56.4,29.95,NNW,330,0.0,0.0,90,0.00,,,0.00,VWS V13.01,2013-06-04 10:27:00,
2013-06-04 05:32:00,59.0,56.1,29.95,NNW,330,0.0,0.0,90,0.00,,,0.00,VWS V13.01,2013-06-04 10:32:00,
2013-06-04 05:37:00,58.8,55.9,29.95,NNW,330,0.0,0.0,90,0.00,,,0.00,VWS V13.01,2013-06-04 10:37:00,
2013-06-04 05:42:00,58.6,56.0,29.95,NNW,330,0.0,0.0,91,0.00,,,0.00,VWS V13.01,2013-06-04 10:42:00,
2013-06-04 05:47:00,58.4,56.1,29.95,ENE,64,0.0,0.0,92,0.00,,,0.00,VWS V13.01,2013-06-04 10:47:00,
2013-06-04 05:52:00,58.3,56.0,29.95,ENE,64,0.0,0.0,92,0.00,,,0.00,VWS V13.01,2013-06-04 10:52:00,
2013-06-04 05:57:00,58.3,56.8,29.95,ENE,64,0.0,0.0,95,0.00,,,0.00,VWS V13.01,2013-06-04 10:57:00,
2013-06-04 06:01:00,58.1,57.5,29.95,ENE,64,0.0,0.0,98,0.00,,,0.00,VWS V13.01,2013-06-04 11:01:00,
2013-06-04 06:07:00,58.1,58.1,29.95,NE,50,0.0,0.0,100,0.00,,,0.00,VWS V13.01,2013-06-04 11:07:00,
2013-06-04 06:12:00,58.1,58.1,29.95,NE,40,2.2,2.2,100,0.00,,,0.00,VWS V13.01,2013-06-04 11:12:00,
2013-06-04 06:17:00,57.9,57.9,29.95,NE,40,0.0,0.0,100,0.00,,,0.00,VWS V13.01,2013-06-04 11:17:00,
2013-06-04 06:22:00,57.9,57.9,29.95,NE,40,0.0,0.0,100,0.00,,,0.00,VWS V13.01,2013-06-04 11:22:00,
2013-06-04 06:27:00,57.9,57.9,29.95,NE,40,0.0,0.0,100,0.00,,,0.00,VWS V13.01,2013-06-04 11:27:00,
2013-06-04 06:32:00,57.9,57.9,29.95,NE,40,2.7,2.7,100,0.00,,,0.00,VWS V13.01,2013-06-04 11:32:00,
2013-06-04 06:37:00,58.1,58.1,29.95,NE,40,0.0,0.0,100,0.00,,,0.00,VWS V13.01,2013-06-04 11:37:00,
2013-06-04 06:42:00,58.1,58.1,29.95,NNE,20,0.0,0.0,100,0.00,,,0.00,VWS V13.01,2013-06-04 11:42:00,
2013-06-04 06:47:00,58.4,58.4,29.95,NNE,20,0.0,0.0,100,0.00,,,0.00,VWS V13.01,2013-06-04 11:47:00,
2013-06-04 06:52:00,58.4,58.4,29.95,NNE,20,0.0,0.0,100,0.00,,,0.00,VWS V13.01,2013-06-04 11:52:00,
2013-06-04 06:57:00,58.8,58.8,29.95,NNE,20,0.0,0.0,100,0.00,,,0.00,VWS V13.01,2013-06-04 11:57:00,
2013-06-04 07:02:00,59.0,59.0,29.95,NNE,30,0.0,0.0,100,0.00,,,0.00,VWS V13.01,2013-06-04 12:02:00,
2013-06-04 07:07:00,59.3,59.3,29.95,NE,36,0.0,0.0,100,0.00,,,0.00,VWS V13.01,2013-06-04 12:07:00,
2013-06-04 07:12:00,59.7,59.7,29.95,NNE,26,0.0,0.0,100,0.00,,,0.00,VWS V13.01,2013-06-04 12:12:00,
2013-06-04 07:17:00,59.7,58.8,29.95,North,6,0.0,0.0,97,0.00,,,0.00,VWS V13.01,2013-06-04 12:17:00,
2013-06-04 07:22:00,60.2,58.8,29.95,NNE,23,0.0,2.2,95,0.00,,,0.00,VWS V13.01,2013-06-04 12:22:00,
2013-06-04 07:27:00,60.4,58.1,29.95,NE,36,3.1,3.1,92,0.00,,,0.00,VWS V13.01,2013-06-04 12:27:00,
2013-06-04 07:32:00,61.0,58.0,29.95,ENE,58,0.0,2.7,90,0.00,,,0.00,VWS V13.01,2013-06-04 12:32:00,
2013-06-04 07:37:00,61.1,57.6,29.95,NNE,31,3.1,3.1,88,0.00,,,0.00,VWS V13.01,2013-06-04 12:37:00,
2013-06-04 07:42:00,61.5,57.3,29.95,ENE,57,0.0,0.0,86,0.00,,,0.00,VWS V13.01,2013-06-04 12:42:00,
2013-06-04 07:47:00,62.0,57.8,29.95,NNE,17,2.7,2.7,86,0.00,,,0.00,VWS V13.01,2013-06-04 12:47:00,
2013-06-04 07:52:00,62.9,58.4,29.95,NE,47,2.2,2.2,85,0.00,,,0.00,VWS V13.01,2013-06-04 12:52:00,
2013-06-04 07:57:00,63.7,58.1,29.95,NE,35,3.6,3.6,82,0.00,,,0.00,VWS V13.01,2013-06-04 12:57:00,
2013-06-04 08:02:00,64.2,56.5,29.95,NE,49,4.0,4.0,76,0.00,,,0.00,VWS V13.01,2013-06-04 13:02:00,
2013-06-04 08:07:00,64.4,55.2,29.95,NNE,17,2.7,3.1,72,0.00,,,0.00,VWS V13.01,2013-06-04 13:07:00,
2013-06-04 08:12:00,64.7,55.5,29.95,East,81,6.3,6.3,72,0.00,,,0.00,VWS V13.01,2013-06-04 13:12:00,
2013-06-04 08:17:00,64.9,55.3,29.95,NE,52,4.0,4.0,71,0.00,,,0.00,VWS V13.01,2013-06-04 13:17:00,
2013-06-04 08:22:00,65.3,54.9,29.95,North,6,2.7,3.6,69,0.00,,,0.00,VWS V13.01,2013-06-04 13:22:00,
2013-06-04 08:27:00,65.5,55.0,29.95,East,84,2.2,2.2,69,0.00,,,0.00,VWS V13.01,2013-06-04 13:27:00,
2013-06-04 08:32:00,65.5,55.0,29.95,East,88,8.3,8.3,69,0.00,,,0.00,VWS V13.01,2013-06-04 13:32:00,
2013-06-04 08:37:00,65.5,54.6,29.95,ENE,72,4.9,4.9,68,0.00,,,0.00,VWS V13.01,2013-06-04 13:37:00,
2013-06-04 08:42:00,65.5,54.6,29.95,NNE,33,0.0,2.2,68,0.00,,,0.00,VWS V13.01,2013-06-04 13:42:00,
2013-06-04 08:47:00,65.5,54.6,29.95,NNE,17,2.7,3.6,68,0.00,,,0.00,VWS V13.01,2013-06-04 13:47:00,
2013-06-04 08:52:00,65.6,54.8,29.95,SE,139,4.9,4.9,68,0.00,,,0.00,VWS V13.01,2013-06-04 13:52:00,
2013-06-04 08:57:00,66.0,55.2,29.95,ENE,73,3.1,4.0,68,0.00,,,0.00,VWS V13.01,2013-06-04 13:57:00,
2013-06-04 09:02:00,66.2,55.3,29.98,NE,45,0.0,2.2,68,0.00,,,0.00,VWS V13.01,2013-06-04 14:02:00,
2013-06-04 09:07:00,66.5,54.8,29.98,ESE,117,2.2,2.7,66,0.00,,,0.00,VWS V13.01,2013-06-04 14:07:00,
2013-06-04 09:12:00,66.4,54.2,29.98,South,171,0.0,0.0,65,0.00,,,0.00,VWS V13.01,2013-06-04 14:12:00,
2013-06-04 09:17:00,66.7,55.8,30.01,SW,220,2.7,2.7,68,0.00,,,0.00,VWS V13.01,2013-06-04 14:17:00,
2013-06-04 09:22:00,66.7,54.6,30.01,SSW,210,3.1,3.1,65,0.00,,,0.00,VWS V13.01,2013-06-04 14:22:00,
2013-06-04 09:27:00,66.9,55.6,30.01,WSW,258,2.7,2.7,67,0.00,,,0.00,VWS V13.01,2013-06-04 14:27:00,
2013-06-04 09:32:00,66.9,55.2,30.01,SW,221,2.2,2.2,66,0.00,,,0.00,VWS V13.01,2013-06-04 14:32:00,
2013-06-04 09:37:00,67.1,54.9,30.01,WSW,240,0.0,0.0,65,0.00,,,0.00,VWS V13.01,2013-06-04 14:37:00,
2013-06-04 09:42:00,67.3,55.5,30.01,West,273,3.1,3.1,66,0.00,,,0.00,VWS V13.01,2013-06-04 14:42:00,
2013-06-04 09:47:00,67.3,55.5,30.01,SW,221,0.0,2.2,66,0.00,,,0.00,VWS V13.01,2013-06-04 14:47:00,
2013-06-04 09:52:00,67.4,55.7,30.01,ENE,78,3.6,3.6,66,0.00,,,0.00,VWS V13.01,2013-06-04 14:52:00,
2013-06-04 09:57:00,67.8,55.2,30.01,East,85,0.0,0.0,64,0.00,,,0.00,VWS V13.01,2013-06-04 14:57:00,
2013-06-04 10:02:00,68.0,54.9,30.01,East,85,0.0,0.0,63,0.00,,,0.00,VWS V13.01,2013-06-04 15:02:00,
2013-06-04 10:07:00,68.2,55.5,30.01,ESE,114,2.7,2.7,64,0.00,,,0.00,VWS V13.01,2013-06-04 15:07:00,
2013-06-04 10:12:00,68.2,55.1,30.01,ESE,106,0.0,0.0,63,0.00,,,0.00,VWS V13.01,2013-06-04 15:12:00,
2013-06-04 10:17:00,68.3,55.7,29.98,SSE,147,0.0,0.0,64,0.00,,,0.00,VWS V13.01,2013-06-04 15:17:00,
2013-06-04 10:22:00,68.7,56.0,29.98,WSW,242,3.1,3.1,64,0.00,,,0.00,VWS V13.01,2013-06-04 15:22:00,
2013-06-04 10:27:00,68.9,56.2,29.98,South,181,2.2,2.7,64,0.00,,,0.00,VWS V13.01,2013-06-04 15:27:00,
2013-06-04 10:32:00,69.2,57.0,29.98,WSW,253,3.1,3.6,65,0.00,,,0.00,VWS V13.01,2013-06-04 15:32:00,
2013-06-04 10:37:00,69.2,56.6,29.98,South,178,3.6,5.8,64,0.00,,,0.00,VWS V13.01,2013-06-04 15:37:00,
2013-06-04 10:42:00,69.4,56.7,29.98,South,188,2.2,2.2,64,0.00,,,0.00,VWS V13.01,2013-06-04 15:42:00,
2013-06-04 10:47:00,69.4,56.7,29.98,SSE,150,5.8,5.8,64,0.00,,,0.00,VWS V13.01,2013-06-04 15:47:00,
2013-06-04 10:52:00,69.2,57.0,29.98,SSE,152,3.6,3.6,65,0.00,,,0.00,VWS V13.01,2013-06-04 15:52:00,
2013-06-04 10:57:00,69.2,56.6,29.98,SSE,157,3.1,6.3,64,0.00,,,0.00,VWS V13.01,2013-06-04 15:57:00,
2013-06-04 11:02:00,69.4,58.0,29.98,ESE,111,3.1,3.1,67,0.00,,,0.00,VWS V13.01,2013-06-04 16:02:00,
2013-06-04 11:07:00,69.6,56.5,29.98,ESE,110,2.7,2.7,63,0.00,,,0.00,VWS V13.01,2013-06-04 16:07:00,
2013-06-04 11:12:00,69.6,56.0,29.98,East,81,6.3,6.3,62,0.00,,,0.00,VWS V13.01,2013-06-04 16:12:00,
2013-06-04 11:17:00,70.0,57.2,29.98,SE,143,0.0,0.0,64,0.00,,,0.00,VWS V13.01,2013-06-04 16:17:00,
2013-06-04 11:22:00,70.3,57.1,29.98,ESE,121,3.1,4.0,63,0.00,,,0.00,VWS V13.01,2013-06-04 16:22:00,
2013-06-04 11:27:00,70.3,57.1,29.98,ESE,115,4.9,4.9,63,0.00,,,0.00,VWS V13.01,2013-06-04 16:27:00,
2013-06-04 11:32:00,70.3,57.1,29.98,NNE,15,2.7,2.7,63,0.00,,,0.00,VWS V13.01,2013-06-04 16:32:00,
2013-06-04 11:37:00,70.7,57.5,29.98,ESE,107,0.0,0.0,63,0.00,,,0.00,VWS V13.01,2013-06-04 16:37:00,
2013-06-04 11:42:00,70.9,58.1,29.98,ENE,76,2.7,3.1,64,0.00,,,0.00,VWS V13.01,2013-06-04 16:42:00,
2013-06-04 11:47:00,71.0,58.3,29.95,NE,55,0.0,0.0,64,0.00,,,0.00,VWS V13.01,2013-06-04 16:47:00,
2013-06-04 11:52:00,71.0,57.4,29.95,ESE,107,5.8,5.8,62,0.00,,,0.00,VWS V13.01,2013-06-04 16:52:00,
2013-06-04 11:57:00,71.0,57.4,29.95,ESE,112,2.7,4.9,62,0.00,,,0.00,VWS V13.01,2013-06-04 16:57:00,
2013-06-04 12:02:00,71.2,58.4,29.95,ENE,77,3.6,3.6,64,0.00,,,0.00,VWS V13.01,2013-06-04 17:02:00,
2013-06-04 12:07:00,71.6,58.3,29.95,East,85,2.2,2.7,63,0.00,,,0.00,VWS V13.01,2013-06-04 17:07:00,
2013-06-04 12:12:00,71.9,57.8,29.95,ENE,62,5.4,5.4,61,0.00,,,0.00,VWS V13.01,2013-06-04 17:12:00,
2013-06-04 12:17:00,72.1,58.4,29.95,NE,35,2.2,2.7,62,0.00,,,0.00,VWS V13.01,2013-06-04 17:17:00,
2013-06-04 12:22:00,72.7,58.5,29.95,SE,127,2.7,2.7,61,0.00,,,0.00,VWS V13.01,2013-06-04 17:22:00,
2013-06-04 12:27:00,73.2,59.0,29.95,ENE,74,3.6,3.6,61,0.00,,,0.00,VWS V13.01,2013-06-04 17:27:00,
2013-06-04 12:32:00,73.7,58.1,29.92,East,83,2.7,2.7,58,0.00,,,0.00,VWS V13.01,2013-06-04 17:32:00,
2013-06-04 12:37:00,74.1,57.9,29.92,NE,38,8.7,8.7,57,0.00,,,0.00,VWS V13.01,2013-06-04 17:37:00,
2013-06-04 12:42:00,74.5,57.8,29.92,ESE,122,5.4,5.4,56,0.00,,,0.00,VWS V13.01,2013-06-04 17:42:00,
2013-06-04 12:47:00,74.8,58.1,29.92,ESE,104,4.0,4.0,56,0.00,,,0.00,VWS V13.01,2013-06-04 17:47:00,
2013-06-04 12:52:00,74.6,58.9,29.92,NE,41,7.2,7.2,58,0.00,,,0.00,VWS V13.01,2013-06-04 17:52:00,
2013-06-04 12:57:00,74.8,59.5,29.92,NE,49,8.1,8.1,59,0.00,,,0.00,VWS V13.01,2013-06-04 17:57:00,
2013-06-04 13:02:00,74.6,58.4,29.89,ESE,120,8.3,8.3,57,0.00,,,0.00,VWS V13.01,2013-06-04 18:02:00,
2013-06-04 13:07:00,75.0,58.8,29.89,East,82,5.4,5.8,57,0.00,,,0.00,VWS V13.01,2013-06-04 18:07:00,
2013-06-04 13:12:00,75.5,58.8,29.89,ENE,63,2.7,2.7,56,0.00,,,0.00,VWS V13.01,2013-06-04 18:12:00,
2013-06-04 13:17:00,75.7,58.9,29.92,North,11,4.0,4.0,56,0.00,,,0.00,VWS V13.01,2013-06-04 18:17:00,
2013-06-04 13:22:00,75.7,58.9,29.92,ENE,68,5.8,5.8,56,0.00,,,0.00,VWS V13.01,2013-06-04 18:22:00,
2013-06-04 13:27:00,75.5,57.8,29.92,ESE,104,3.1,7.6,54,0.00,,,0.00,VWS V13.01,2013-06-04 18:27:00,
2013-06-04 13:32:00,75.5,57.8,29.89,NE,46,3.6,5.8,54,0.00,,,0.00,VWS V13.01,2013-06-04 18:32:00,
2013-06-04 13:37:00,75.2,57.9,29.89,East,80,3.6,4.0,55,0.00,,,0.00,VWS V13.01,2013-06-04 18:37:00,
2013-06-04 13:42:00,74.5,57.8,29.89,ENE,63,4.0,4.0,56,0.00,,,0.00,VWS V13.01,2013-06-04 18:42:00,
2013-06-04 13:47:00,74.3,58.1,29.89,SE,128,7.6,7.6,57,0.00,,,0.00,VWS V13.01,2013-06-04 18:47:00,
2013-06-04 13:52:00,74.1,57.4,29.89,ENE,57,4.0,6.3,56,0.00,,,0.00,VWS V13.01,2013-06-04 18:52:00,
2013-06-04 13:57:00,73.9,57.7,29.89,NE,54,2.7,2.7,57,0.00,,,0.00,VWS V13.01,2013-06-04 18:57:00,
2013-06-04 14:02:00,73.7,57.6,29.89,SE,128,3.1,3.6,57,0.00,,,0.00,VWS V13.01,2013-06-04 19:02:00,
2013-06-04 14:07:00,73.6,58.4,29.89,ENE,61,2.2,3.1,59,0.00,,,0.00,VWS V13.01,2013-06-04 19:07:00,
2013-06-04 14:12:00,73.4,57.7,29.89,ENE,76,6.3,6.3,58,0.00,,,0.00,VWS V13.01,2013-06-04 19:12:00,
2013-06-04 14:17:00,73.4,58.2,29.89,East,95,4.9,4.9,59,0.00,,,0.00,VWS V13.01,2013-06-04 19:17:00,
2013-06-04 14:22:00,73.4,59.1,29.89,ENE,78,5.8,5.8,61,0.00,,,0.00,VWS V13.01,2013-06-04 19:22:00,
2013-06-04 14:27:00,73.4,59.1,29.89,ESE,112,3.1,3.1,61,0.00,,,0.00,VWS V13.01,2013-06-04 19:27:00,
2013-06-04 14:32:00,73.2,59.0,29.89,NE,48,3.1,3.1,61,0.00,,,0.00,VWS V13.01,2013-06-04 19:32:00,
2013-06-04 14:37:00,73.4,59.1,29.89,East,89,2.7,2.7,61,0.00,,,0.00,VWS V13.01,2013-06-04 19:37:00,
2013-06-04 14:42:00,73.9,59.2,29.89,ESE,102,2.2,2.7,60,0.00,,,0.00,VWS V13.01,2013-06-04 19:42:00,
2013-06-04 14:47:00,75.0,59.7,29.89,ENE,62,3.6,3.6,59,0.00,,,0.00,VWS V13.01,2013-06-04 19:47:00,
2013-06-04 14:52:00,76.1,58.8,29.89,West,272,0.0,2.7,55,0.00,,,0.00,VWS V13.01,2013-06-04 19:52:00,
2013-06-04 14:57:00,76.6,58.8,29.89,ESE,112,5.8,6.3,54,0.00,,,0.00,VWS V13.01,2013-06-04 19:57:00,
2013-06-04 15:02:00,76.3,58.9,29.89,ESE,117,4.0,5.4,55,0.00,,,0.00,VWS V13.01,2013-06-04 20:02:00,
2013-06-04 15:07:00,75.9,58.1,29.89,East,90,8.7,10.5,54,0.00,,,0.00,VWS V13.01,2013-06-04 20:07:00,
2013-06-04 15:12:00,76.1,58.8,29.89,ENE,62,5.8,6.3,55,0.00,,,0.00,VWS V13.01,2013-06-04 20:12:00,
2013-06-04 15:17:00,76.4,58.6,29.89,East,88,11.9,11.9,54,0.00,,,0.00,VWS V13.01,2013-06-04 20:17:00,
2013-06-04 15:22:00,76.6,58.8,29.89,SSE,157,5.8,5.8,54,0.00,,,0.00,VWS V13.01,2013-06-04 20:22:00,
2013-06-04 15:27:00,77.3,59.9,29.89,NE,44,4.0,5.4,55,0.00,,,0.00,VWS V13.01,2013-06-04 20:27:00,
2013-06-04 15:32:00,78.2,60.2,29.89,SE,124,6.3,6.3,54,0.00,,,0.00,VWS V13.01,2013-06-04 20:32:00,
2013-06-04 15:37:00,78.6,59.0,29.89,NNE,30,5.8,7.6,51,0.00,,,0.00,VWS V13.01,2013-06-04 20:37:00,
2013-06-04 15:42:00,78.4,58.8,29.89,ENE,73,4.0,5.4,51,0.00,,,0.00,VWS V13.01,2013-06-04 20:42:00,
2013-06-04 15:47:00,78.8,59.1,29.89,ENE,72,4.0,4.0,51,0.00,,,0.00,VWS V13.01,2013-06-04 20:47:00,
2013-06-04 15:52:00,79.0,58.8,29.89,ENE,74,5.8,6.3,50,0.00,,,0.00,VWS V13.01,2013-06-04 20:52:00,
2013-06-04 15:57:00,78.6,59.0,29.89,ESE,104,5.4,9.6,51,0.00,,,0.00,VWS V13.01,2013-06-04 20:57:00,
2013-06-04 16:02:00,78.4,58.8,29.89,ESE,121,7.2,7.6,51,0.00,,,0.00,VWS V13.01,2013-06-04 21:02:00,
2013-06-04 16:07:00,78.1,58.5,29.89,North,2,3.6,3.6,51,0.00,,,0.00,VWS V13.01,2013-06-04 21:07:00,
2013-06-04 16:12:00,78.6,59.5,29.89,East,87,4.0,4.0,52,0.00,,,0.00,VWS V13.01,2013-06-04 21:12:00,
2013-06-04 16:17:00,78.6,59.0,29.89,ENE,70,4.9,4.9,51,0.00,,,0.00,VWS V13.01,2013-06-04 21:17:00,
2013-06-04 16:22:00,78.8,59.1,29.89,South,179,3.6,6.3,51,0.00,,,0.00,VWS V13.01,2013-06-04 21:22:00,
2013-06-04 16:27:00,79.1,59.5,29.89,NNE,26,3.1,3.6,51,0.00,,,0.00,VWS V13.01,2013-06-04 21:27:00,
2013-06-04 16:32:00,79.1,59.5,29.89,ESE,110,3.6,4.0,51,0.00,,,0.00,VWS V13.01,2013-06-04 21:32:00,
2013-06-04 16:37:00,78.4,58.8,29.89,SSE,150,4.9,6.3,51,0.00,,,0.00,VWS V13.01,2013-06-04 21:37:00,
2013-06-04 16:42:00,78.4,59.4,29.89,East,80,5.4,6.3,52,0.00,,,0.00,VWS V13.01,2013-06-04 21:42:00,
2013-06-04 16:47:00,78.8,59.1,29.89,ESE,113,2.2,3.6,51,0.00,,,0.00,VWS V13.01,2013-06-04 21:47:00,
2013-06-04 16:52:00,79.3,59.6,29.89,ENE,71,4.5,4.5,51,0.00,,,0.00,VWS V13.01,2013-06-04 21:52:00,
2013-06-04 16:57:00,79.3,59.1,29.89,East,95,3.6,3.6,50,0.00,,,0.00,VWS V13.01,2013-06-04 21:57:00,
2013-06-04 17:02:00,78.4,58.8,29.89,SE,128,3.1,3.6,51,0.00,,,0.00,VWS V13.01,2013-06-04 22:02:00,
2013-06-04 17:07:00,77.9,58.3,29.89,ENE,78,3.1,3.6,51,0.00,,,0.00,VWS V13.01,2013-06-04 22:07:00,
2013-06-04 17:12:00,77.7,58.2,29.89,East,92,3.6,3.6,51,0.00,,,0.00,VWS V13.01,2013-06-04 22:12:00,
2013-06-04 17:17:00,77.7,58.2,29.89,ENE,75,3.1,4.9,51,0.00,,,0.00,VWS V13.01,2013-06-04 22:17:00,
2013-06-04 17:22:00,77.3,58.4,29.89,SE,143,3.1,3.1,52,0.00,,,0.00,VWS V13.01,2013-06-04 22:22:00,
2013-06-04 17:27:00,77.7,58.7,29.89,SE,143,5.8,6.3,52,0.00,,,0.00,VWS V13.01,2013-06-04 22:27:00,
2013-06-04 17:32:00,77.9,59.4,29.89,SE,136,3.6,3.6,53,0.00,,,0.00,VWS V13.01,2013-06-04 22:32:00,
2013-06-04 17:37:00,78.1,59.0,29.89,ENE,70,6.7,6.7,52,0.00,,,0.00,VWS V13.01,2013-06-04 22:37:00,
2013-06-04 17:42:00,78.1,58.5,29.89,SE,126,5.4,5.4,51,0.00,,,0.00,VWS V13.01,2013-06-04 22:42:00,
2013-06-04 17:47:00,78.1,59.0,29.86,SSE,158,2.7,2.7,52,0.00,,,0.00,VWS V13.01,2013-06-04 22:47:00,
2013-06-04 17:52:00,78.1,59.0,29.86,SE,124,3.1,4.0,52,0.00,,,0.00,VWS V13.01,2013-06-04 22:52:00,
2013-06-04 17:57:00,77.9,58.3,29.86,SSE,147,3.6,8.3,51,0.00,,,0.00,VWS V13.01,2013-06-04 22:57:00,
2013-06-04 18:02:00,77.9,58.3,29.89,ESE,122,5.4,5.4,51,0.00,,,0.00,VWS V13.01,2013-06-04 23:02:00,
2013-06-04 18:07:00,77.9,58.3,29.89,SE,128,2.7,2.7,51,0.00,,,0.00,VWS V13.01,2013-06-04 23:07:00,
2013-06-04 18:12:00,77.9,57.8,29.89,SSE,151,5.4,6.3,50,0.00,,,0.00,VWS V13.01,2013-06-04 23:12:00,
2013-06-04 18:17:00,77.7,58.2,29.89,ESE,111,7.2,7.2,51,0.00,,,0.00,VWS V13.01,2013-06-04 23:17:00,
2013-06-04 18:22:00,77.7,58.2,29.89,ESE,114,4.9,5.4,51,0.00,,,0.00,VWS V13.01,2013-06-04 23:22:00,
2013-06-04 18:27:00,77.7,57.6,29.89,SE,135,3.6,3.6,50,0.00,,,0.00,VWS V13.01,2013-06-04 23:27:00,
2013-06-04 18:32:00,77.7,58.2,29.89,SSE,164,4.9,4.9,51,0.00,,,0.00,VWS V13.01,2013-06-04 23:32:00,
2013-06-04 18:37:00,77.5,57.4,29.89,ENE,63,5.4,6.3,50,0.00,,,0.00,VWS V13.01,2013-06-04 23:37:00,
2013-06-04 18:42:00,77.5,57.4,29.89,ESE,119,5.4,5.8,50,0.00,,,0.00,VWS V13.01,2013-06-04 23:42:00,
2013-06-04 18:47:00,77.5,58.0,29.89,ESE,108,4.9,5.4,51,0.00,,,0.00,VWS V13.01,2013-06-04 23:47:00,
2013-06-04 18:52:00,77.5,58.0,29.89,East,97,3.1,4.0,51,0.00,,,0.00,VWS V13.01,2013-06-04 23:52:00,
2013-06-04 18:57:00,77.3,57.8,29.89,ESE,112,3.1,6.3,51,0.00,,,0.00,VWS V13.01,2013-06-04 23:57:00,
2013-06-04 19:02:00,77.3,57.8,29.89,South,176,2.7,4.0,51,0.00,,,0.00,VWS V13.01,2013-06-05 00:02:00,
2013-06-04 19:07:00,77.2,57.7,29.89,ENE,72,3.1,4.0,51,0.00,,,0.00,VWS V13.01,2013-06-05 00:07:00,
2013-06-04 19:12:00,77.2,57.7,29.89,ENE,74,4.0,4.0,51,0.00,,,0.00,VWS V13.01,2013-06-05 00:12:00,
2013-06-04 19:17:00,77.0,57.5,29.89,East,87,3.1,4.9,51,0.00,,,0.00,VWS V13.01,2013-06-05 00:17:00,
2013-06-04 19:22:00,77.0,58.0,29.89,East,84,0.0,2.2,52,0.00,,,0.00,VWS V13.01,2013-06-05 00:22:00,
2013-06-04 19:27:00,76.8,57.9,29.89,NE,46,0.0,0.0,52,0.00,,,0.00,VWS V13.01,2013-06-05 00:27:00,
2013-06-04 19:32:00,76.8,57.3,29.89,East,82,0.0,0.0,51,0.00,,,0.00,VWS V13.01,2013-06-05 00:32:00,
2013-06-04 19:37:00,76.6,57.7,29.89,ENE,69,0.0,2.7,52,0.00,,,0.00,VWS V13.01,2013-06-05 00:37:00,
2013-06-04 19:42:00,76.4,57.5,29.89,ENE,64,0.0,2.2,52,0.00,,,0.00,VWS V13.01,2013-06-05 00:42:00,
2013-06-04 19:47:00,76.1,57.2,29.89,NE,40,0.0,0.0,52,0.00,,,0.00,VWS V13.01,2013-06-05 00:47:00,
2013-06-04 19:52:00,75.9,57.6,29.89,NE,40,0.0,0.0,53,0.00,,,0.00,VWS V13.01,2013-06-05 00:52:00,
2013-06-04 19:57:00,75.5,57.2,29.89,NNE,14,2.7,3.6,53,0.00,,,0.00,VWS V13.01,2013-06-05 00:57:00,
2013-06-04 20:02:00,75.2,57.4,29.89,NE,40,3.1,4.0,54,0.00,,,0.00,VWS V13.01,2013-06-05 01:02:00,
2013-06-04 20:07:00,74.6,57.4,29.89,NNE,33,2.7,3.1,55,0.00,,,0.00,VWS V13.01,2013-06-05 01:07:00,
2013-06-04 20:12:00,74.3,57.1,29.89,NNE,33,0.0,0.0,55,0.00,,,0.00,VWS V13.01,2013-06-05 01:12:00,
2013-06-04 20:17:00,74.3,57.1,29.89,NNE,33,0.0,0.0,55,0.00,,,0.00,VWS V13.01,2013-06-05 01:17:00,
2013-06-04 20:22:00,73.9,57.2,29.89,NNE,33,0.0,0.0,56,0.00,,,0.00,VWS V13.01,2013-06-05 01:22:00,
2013-06-04 20:27:00,73.7,57.1,29.89,North,355,0.0,0.0,56,0.00,,,0.00,VWS V13.01,2013-06-05 01:27:00,
2013-06-04 20:32:00,73.4,57.7,29.89,North,357,0.0,2.7,58,0.00,,,0.00,VWS V13.01,2013-06-05 01:32:00,
2013-06-04 20:37:00,72.8,57.2,29.89,North,6,0.0,2.7,58,0.00,,,0.00,VWS V13.01,2013-06-05 01:37:00,
2013-06-04 20:42:00,72.5,57.3,29.89,NNE,12,0.0,2.7,59,0.00,,,0.00,VWS V13.01,2013-06-05 01:42:00,
2013-06-04 20:47:00,72.3,57.7,29.89,North,1,0.0,0.0,60,0.00,,,0.00,VWS V13.01,2013-06-05 01:47:00,
2013-06-04 20:52:00,71.9,56.8,29.89,NE,35,2.7,4.0,59,0.00,,,0.00,VWS V13.01,2013-06-05 01:52:00,
2013-06-04 20:57:00,71.8,57.6,29.89,NNE,21,0.0,0.0,61,0.00,,,0.00,VWS V13.01,2013-06-05 01:57:00,
2013-06-04 21:02:00,71.4,57.3,29.89,North,6,0.0,3.1,61,0.00,,,0.00,VWS V13.01,2013-06-05 02:02:00,
2013-06-04 21:07:00,71.0,57.4,29.89,North,6,0.0,0.0,62,0.00,,,0.00,VWS V13.01,2013-06-05 02:07:00,
2013-06-04 21:12:00,70.9,57.2,29.89,North,6,0.0,0.0,62,0.00,,,0.00,VWS V13.01,2013-06-05 02:12:00,
2013-06-04 21:17:00,70.7,57.0,29.89,NNE,14,0.0,0.0,62,0.00,,,0.00,VWS V13.01,2013-06-05 02:17:00,
2013-06-04 21:22:00,70.5,56.9,29.89,NNE,14,0.0,0.0,62,0.00,,,0.00,VWS V13.01,2013-06-05 02:22:00,
2013-06-04 21:27:00,70.3,56.7,29.89,NNE,14,0.0,0.0,62,0.00,,,0.00,VWS V13.01,2013-06-05 02:27:00,
2013-06-04 21:32:00,70.1,57.0,29.89,NNE,14,0.0,0.0,63,0.00,,,0.00,VWS V13.01,2013-06-05 02:32:00,
2013-06-04 21:37:00,70.0,56.8,29.89,NNE,14,0.0,0.0,63,0.00,,,0.00,VWS V13.01,2013-06-05 02:37:00,
2013-06-04 21:42:00,69.8,56.6,29.89,NNE,14,0.0,0.0,63,0.00,,,0.00,VWS V13.01,2013-06-05 02:42:00,
2013-06-04 21:47:00,69.6,56.9,29.92,NNE,14,0.0,0.0,64,0.00,,,0.00,VWS V13.01,2013-06-05 02:47:00,
2013-06-04 21:52:00,69.2,57.0,29.92,NNE,14,0.0,0.0,65,0.00,,,0.00,VWS V13.01,2013-06-05 02:52:00,
2013-06-04 21:57:00,69.1,56.8,29.92,NNE,14,0.0,0.0,65,0.00,,,0.00,VWS V13.01,2013-06-05 02:57:00,
2013-06-04 22:02:00,68.9,56.6,29.92,NNE,14,0.0,0.0,65,0.00,,,0.00,VWS V13.01,2013-06-05 03:02:00,
2013-06-04 22:07:00,68.7,56.9,29.92,NNE,14,0.0,0.0,66,0.00,,,0.00,VWS V13.01,2013-06-05 03:07:00,
2013-06-04 22:12:00,68.5,56.7,29.92,NNE,14,0.0,0.0,66,0.00,,,0.00,VWS V13.01,2013-06-05 03:12:00,
2013-06-04 22:17:00,68.2,56.4,29.92,NNE,14,0.0,0.0,66,0.00,,,0.00,VWS V13.01,2013-06-05 03:17:00,
2013-06-04 22:22:00,68.0,57.0,29.92,NNE,14,0.0,0.0,68,0.00,,,0.00,VWS V13.01,2013-06-05 03:22:00,
2013-06-04 22:27:00,67.6,56.7,29.92,NNE,14,0.0,0.0,68,0.00,,,0.00,VWS V13.01,2013-06-05 03:27:00,
2013-06-04 22:32:00,67.3,57.2,29.92,NNE,14,0.0,0.0,70,0.00,,,0.00,VWS V13.01,2013-06-05 03:32:00,
2013-06-04 22:37:00,66.9,57.2,29.92,NNE,14,0.0,0.0,71,0.00,,,0.00,VWS V13.01,2013-06-05 03:37:00,
2013-06-04 22:42:00,66.4,57.1,29.92,NNE,14,0.0,0.0,72,0.00,,,0.00,VWS V13.01,2013-06-05 03:42:00,
2013-06-04 22:46:00,66.0,57.9,29.92,NNE,14,0.0,0.0,75,0.00,,,0.00,VWS V13.01,2013-06-05 03:46:00,
2013-06-04 22:51:00,65.6,57.9,29.92,NNE,14,0.0,0.0,76,0.00,,,0.00,VWS V13.01,2013-06-05 03:51:00,
2013-06-04 22:56:00,65.5,58.1,29.92,NNE,14,0.0,0.0,77,0.00,,,0.00,VWS V13.01,2013-06-05 03:56:00,
2013-06-04 23:01:00,65.3,57.9,29.92,NNE,14,0.0,0.0,77,0.00,,,0.00,VWS V13.01,2013-06-05 04:01:00,
2013-06-04 23:06:00,65.1,58.8,29.92,NNE,14,0.0,0.0,80,0.00,,,0.00,VWS V13.01,2013-06-05 04:06:00,
2013-06-04 23:11:00,64.9,59.0,29.92,NNE,14,0.0,0.0,81,0.00,,,0.00,VWS V13.01,2013-06-05 04:11:00,
2013-06-04 23:16:00,64.9,59.0,29.92,NNE,14,0.0,0.0,81,0.00,,,0.00,VWS V13.01,2013-06-05 04:16:00,
2013-06-04 23:21:00,64.9,58.6,29.92,NNE,14,0.0,0.0,80,0.00,,,0.00,VWS V13.01,2013-06-05 04:21:00,
2013-06-04 23:26:00,64.9,58.3,29.92,NNE,14,0.0,0.0,79,0.00,,,0.00,VWS V13.01,2013-06-05 04:26:00,
2013-06-04 23:31:00,64.7,58.1,29.92,NNE,14,0.0,0.0,79,0.00,,,0.00,VWS V13.01,2013-06-05 04:31:00,
2013-06-04 23:36:00,64.6,58.3,29.92,NNE,14,0.0,0.0,80,0.00,,,0.00,VWS V13.01,2013-06-05 04:36:00,
2013-06-04 23:41:00,64.4,58.4,29.92,NNE,14,0.0,0.0,81,0.00,,,0.00,VWS V13.01,2013-06-05 04:41:00,
2013-06-04 23:46:00,64.2,58.3,29.92,NNE,14,0.0,0.0,81,0.00,,,0.00,VWS V13.01,2013-06-05 04:46:00,
2013-06-04 23:51:00,64.2,59.6,29.92,NNE,14,0.0,0.0,85,0.00,,,0.00,VWS V13.01,2013-06-05 04:51:00,
2013-06-04 23:57:00,64.0,60.1,29.92,NNE,14,0.0,0.0,87,0.00,,,0.00,VWS V13.01,2013-06-05 04:57:00,